Find Starlink 11584

NORAD ID: 63106 Int'l Des: 2025-039 Owner: SPXS Country: US Constellation: starlink operational
LEOCIRCULAR

当前视图

正在加载3D地球...

About Starlink 11584

Starlink 11584 (NORAD 63106) is a starlink constellation satellite (v2 mini d2c) launched Feb 27, 2025 by SPXS of US. It operates in LEO, CIRCULAR orbit with a mass of 960.00 kg.

关于 Starlink 11584

正在加载描述...

即将过境

Passes for default location (London). Set your location on the main map for personalized predictions.

高度历史

Loading altitude history...

两行轨道根数

1 63106U 25039C 26170.81860774 .00265832 00000-0 20046-2 0 9992
2 63106 43.0011 341.6093 0001840 279.5167 80.5493 15.70899285 75671
Epoch: Jun 19, 2026 • Age: 8 hours

当前状态

高度 358.5 km
速度 7.70 km/s
星下点 -16.70°S, 5.15°E
发射日期 Feb 27, 2025
运行时间 1.3 years
类型 internet

技术详情

分类 Payload
质量 960.00 kg
干质量 910.00 kg
总质量 960.00 kg
长度 0.30 m
直径 4.10 m
跨度 29.00 m
形状 Box + pan
制造商 SPXS
平台类型 Starlink V2MD
阶段状态 In Orbit
所有者/国家 SPXS/US

Most Searched